This is the latest recevied weather packets stored in our database for station/object KC2TER. If no packets are shown the sender has not sent any weather packets the latest 1 day(s).
| Time | Temp. | Humidity | Pressure | Rain* | Wind** | Luminosity | Snow |
|---|---|---|---|---|---|---|---|
| 1778004626 | 25° C | 57% | 1009.8 hPa | 0 mm | 1.34 m/s, 89° | 833 W/m² | - |
| 1778004321 | 24.44° C | 60% | 1010 hPa | 0 mm | 0.45 m/s, 107° | 831 W/m² | - |
| 1778004021 | 23.89° C | 60% | 1010.2 hPa | 0 mm | 0.45 m/s, 97° | 855 W/m² | - |
| 1778003714 | 23.33° C | 61% | 1010.1 hPa | 0 mm | 0 m/s | 860 W/m² | - |
| 1778003412 | 24.44° C | 59% | 1010.1 hPa | 0 mm | 0.89 m/s, 88° | 865 W/m² | - |
| 1778003108 | 24.44° C | 58% | 1010.3 hPa | 0 mm | 0.89 m/s, 103° | 839 W/m² | - |
| 1778002804 | 23.89° C | 60% | 1010.1 hPa | 0 mm | 0 m/s | 813 W/m² | - |
| 1778002501 | 24.44° C | 58% | 1010.1 hPa | 0 mm | 0.45 m/s, 96° | 799 W/m² | - |
| 1778002198 | 24.44° C | 59% | 1010.3 hPa | 0 mm | 0.45 m/s, 98° | 804 W/m² | - |
| 1778001897 | 23.89° C | 60% | 1010.3 hPa | 0 mm | 0.45 m/s, 81° | 803 W/m² | - |
| 1778001596 | 24.44° C | 59% | 1010.2 hPa | 0 mm | 0.45 m/s, 98° | 799 W/m² | - |
| 1778001293 | 24.44° C | 59% | 1010.3 hPa | 0 mm | 1.34 m/s, 69° | 789 W/m² | - |
| 1778000989 | 24.44° C | 60% | 1010.3 hPa | 0 mm | 0.89 m/s, 49° | 772 W/m² | - |
| 1778000686 | 24.44° C | 59% | 1010.4 hPa | 0 mm | 0.89 m/s, 91° | 782 W/m² | - |
| 1778000382 | 24.44° C | 59% | 1010.3 hPa | 0 mm | 0.45 m/s, 90° | 787 W/m² | - |
| 1778000078 | 24.44° C | 59% | 1010.5 hPa | 0 mm | 0 m/s | 776 W/m² | - |
| 1777999773 | 25° C | 59% | 1010.6 hPa | 0 mm | 0 m/s | 771 W/m² | - |
| 1777999470 | 25.56° C | 58% | 1010.7 hPa | 0 mm | 0 m/s | 761 W/m² | - |
| 1777999168 | 25.56° C | 57% | 1010.7 hPa | 0 mm | 0 m/s | 760 W/m² | - |
| 1777998867 | 25.56° C | 56% | 1010.6 hPa | 0 mm | 0.89 m/s, 64° | 761 W/m² | - |
| 1777998566 | 25.56° C | 56% | 1010.4 hPa | 0 mm | 0.89 m/s, 37° | 770 W/m² | - |
| 1777998261 | 26.11° C | 54% | 1010.5 hPa | 0 mm | 0.45 m/s, 84° | 758 W/m² | - |
| 1777997958 | 25.56° C | 55% | 1010.6 hPa | 0 mm | 0.45 m/s, 104° | 732 W/m² | - |
| 1777997655 | 25.56° C | 56% | 1011.1 hPa | 0 mm | 1.34 m/s, 107° | 727 W/m² | - |
| 1777997352 | 25.56° C | 54% | 1010.8 hPa | 0 mm | 0.45 m/s, 84° | 726 W/m² | - |
* Rain latest hour (hover to see other rain measurements)
** Current wind speed in m/s (hover to see current wind gust speed)